Wetterdaten: aktuell Dienstag, 11.08.2020 15:45
Datum Zeit Temp. Feuchte Luftdruck Nieders. Wind Richtung Richtung Sonnenschein Solar Taupunkt Windchill Windben
11.08.2020 15:45 33,0 C 38 % 1013,8 hPa 0,0 l/m 0,0 km/h (0 Bft) W-NW 301 5 min 272 W/m 16,8 C 33,0 C 1,6 km/h (1 Bft)
11.08.2020 15:40 33,1 C 39 % 1013,8 hPa 0,0 l/m 0,0 km/h (0 Bft) W-NW 300 5 min 227 W/m 17,3 C 33,1 C 0,0 km/h (0 Bft)
11.08.2020 15:35 33,0 C 38 % 1013,7 hPa 0,0 l/m 0,0 km/h (0 Bft) W-NW 301 5 min 234 W/m 16,8 C 33,0 C 1,6 km/h (1 Bft)
11.08.2020 15:30 33,0 C 38 % 1013,7 hPa 0,0 l/m 0,0 km/h (0 Bft) W-NW 301 5 min 253 W/m 16,8 C 33,0 C 0,0 km/h (0 Bft)
11.08.2020 15:25 33,1 C 36 % 1013,8 hPa 0,0 l/m 0,0 km/h (0 Bft) W-NW 300 5 min 221 W/m 16,0 C 33,1 C 1,6 km/h (1 Bft)
11.08.2020 15:20 33,3 C 35 % 1013,9 hPa 0,0 l/m 0,0 km/h (0 Bft) W-NW 302 5 min 202 W/m 15,7 C 33,3 C 0,0 km/h (0 Bft)
11.08.2020 15:15 33,7 C 36 % 1013,9 hPa 0,0 l/m 0,2 km/h (0 Bft) W-NW 302 5 min 241 W/m 16,5 C 33,7 C 6,4 km/h (2 Bft)
11.08.2020 15:10 34,2 C 34 % 1014,1 hPa 0,0 l/m 0,3 km/h (0 Bft) W-NW 300 5 min 171 W/m 16,1 C 34,2 C 6,4 km/h (2 Bft)
11.08.2020 15:05 34,6 C 34 % 1014,1 hPa 0,0 l/m 0,4 km/h (0 Bft) O-SO 107 5 min 364 W/m 16,4 C 34,6 C 11,3 km/h (2 Bft)
11.08.2020 15:00 34,7 C 35 % 1014,0 hPa 0,0 l/m 1,1 km/h (1 Bft) O-SO 121 5 min 722 W/m 16,9 C 34,7 C 12,9 km/h (3 Bft)
11.08.2020 14:55 34,7 C 36 % 1014,1 hPa 0,0 l/m 4,2 km/h (1 Bft) O-SO 120 5 min 703 W/m 17,4 C 34,7 C 14,5 km/h (3 Bft)
11.08.2020 14:50 34,8 C 36 % 1014,1 hPa 0,0 l/m 7,5 km/h (2 Bft) SO 130 5 min 700 W/m 17,5 C 34,8 C 16,1 km/h (3 Bft)
11.08.2020 14:45 34,5 C 37 % 1014,1 hPa 0,0 l/m 1,0 km/h (0 Bft) O-SO 103 5 min 714 W/m 17,7 C 34,5 C 12,9 km/h (3 Bft)
11.08.2020 14:40 34,3 C 37 % 1014,2 hPa 0,0 l/m 3,7 km/h (1 Bft) O-SO 123 5 min 715 W/m 17,5 C 34,3 C 16,1 km/h (3 Bft)
11.08.2020 14:35 34,2 C 37 % 1014,1 hPa 0,0 l/m 0,9 km/h (0 Bft) O 99 5 min 715 W/m 17,4 C 34,2 C 9,7 km/h (2 Bft)
11.08.2020 14:30 34,2 C 37 % 1014,2 hPa 0,0 l/m 3,1 km/h (1 Bft) O 96 5 min 715 W/m 17,4 C 34,2 C 16,1 km/h (3 Bft)
11.08.2020 14:25 34,2 C 38 % 1014,3 hPa 0,0 l/m 0,6 km/h (0 Bft) S 179 5 min 717 W/m 17,8 C 34,2 C 6,4 km/h (2 Bft)
11.08.2020 14:20 34,0 C 38 % 1014,4 hPa 0,0 l/m 4,1 km/h (1 Bft) SO 142 5 min 722 W/m 17,6 C 34,0 C 14,5 km/h (3 Bft)
11.08.2020 14:15 33,9 C 38 % 1014,5 hPa 0,0 l/m 5,9 km/h (2 Bft) SO 140 5 min 693 W/m 17,5 C 33,9 C 19,3 km/h (3 Bft)
11.08.2020 14:10 33,8 C 38 % 1014,5 hPa 0,0 l/m 5,2 km/h (1 Bft) SO 126 5 min 733 W/m 17,5 C 33,8 C 14,5 km/h (3 Bft)
11.08.2020 14:05 33,7 C 39 % 1014,5 hPa 0,0 l/m 1,6 km/h (1 Bft) SO 135 5 min 728 W/m 17,8 C 33,7 C 12,9 km/h (3 Bft)
11.08.2020 14:00 33,7 C 40 % 1014,6 hPa 0,0 l/m 1,4 km/h (1 Bft) SO 132 5 min 626 W/m 18,2 C 33,7 C 11,3 km/h (2 Bft)
11.08.2020 13:55 33,6 C 39 % 1014,6 hPa 0,0 l/m 0,5 km/h (0 Bft) O-SO 105 5 min 649 W/m 17,7 C 33,6 C 6,4 km/h (2 Bft)
11.08.2020 13:50 33,6 C 38 % 1014,8 hPa 0,0 l/m 5,6 km/h (2 Bft) O-SO 104 5 min 647 W/m 17,3 C 33,6 C 14,5 km/h (3 Bft)
11.08.2020 13:45 33,5 C 39 % 1014,8 hPa 0,0 l/m 2,8 km/h (1 Bft) O-SO 102 5 min 657 W/m 17,6 C 33,5 C 17,7 km/h (3 Bft)
11.08.2020 13:40 33,7 C 39 % 1014,8 hPa 0,0 l/m 8,0 km/h (2 Bft) SO 126 5 min 668 W/m 17,8 C 33,7 C 16,1 km/h (3 Bft)
11.08.2020 13:35 33,6 C 39 % 1014,9 hPa 0,0 l/m 11,3 km/h (2 Bft) O-SO 112 5 min 707 W/m 17,7 C 33,6 C 20,9 km/h (4 Bft)
11.08.2020 13:30 33,4 C 39 % 1014,9 hPa 0,0 l/m 5,6 km/h (2 Bft) S-SO 150 5 min 687 W/m 17,5 C 33,4 C 16,1 km/h (3 Bft)
11.08.2020 13:25 33,4 C 40 % 1014,9 hPa 0,0 l/m 10,5 km/h (2 Bft) S-SO 155 5 min 715 W/m 17,9 C 33,4 C 17,7 km/h (3 Bft)
11.08.2020 13:20 33,3 C 41 % 1014,9 hPa 0,0 l/m 6,5 km/h (2 Bft) S-SO 156 5 min 712 W/m 18,2 C 33,3 C 17,7 km/h (3 Bft)
11.08.2020 13:15 33,1 C 40 % 1014,9 hPa 0,0 l/m 6,8 km/h (2 Bft) SO 128 5 min 731 W/m 17,7 C 33,1 C 17,7 km/h (3 Bft)
11.08.2020 13:10 33,0 C 40 % 1015,0 hPa 0,0 l/m 3,5 km/h (1 Bft) SO 136 5 min 737 W/m 17,6 C 33,0 C 14,5 km/h (3 Bft)
11.08.2020 13:05 33,1 C 40 % 1014,9 hPa 0,0 l/m 6,4 km/h (2 Bft) S-SO 155 5 min 717 W/m 17,7 C 33,1 C 14,5 km/h (3 Bft)
11.08.2020 13:00 33,2 C 40 % 1015,0 hPa 0,0 l/m 10,0 km/h (2 Bft) S-SO 148 5 min 717 W/m 17,7 C 33,2 C 19,3 km/h (3 Bft)
11.08.2020 12:55 33,0 C 40 % 1015,0 hPa 0,0 l/m 3,8 km/h (1 Bft) O-SO 114 5 min 691 W/m 17,6 C 33,0 C 12,9 km/h (3 Bft)
11.08.2020 12:50 32,9 C 41 % 1014,9 hPa 0,0 l/m 4,9 km/h (1 Bft) SO 142 5 min 715 W/m 17,9 C 32,9 C 19,3 km/h (3 Bft)
11.08.2020 12:45 32,8 C 41 % 1015,0 hPa 0,0 l/m 3,3 km/h (1 Bft) SO 144 5 min 719 W/m 17,8 C 32,8 C 16,1 km/h (3 Bft)
11.08.2020 12:40 32,7 C 42 % 1015,0 hPa 0,0 l/m 1,6 km/h (1 Bft) O-SO 120 5 min 708 W/m 18,1 C 32,7 C 12,9 km/h (3 Bft)
11.08.2020 12:35 32,7 C 42 % 1015,1 hPa 0,0 l/m 1,2 km/h (1 Bft) SO 128 5 min 712 W/m 18,1 C 32,7 C 12,9 km/h (3 Bft)
11.08.2020 12:30 32,3 C 43 % 1015,1 hPa 0,0 l/m 6,5 km/h (2 Bft) SO 132 5 min 691 W/m 18,1 C 32,3 C 19,3 km/h (3 Bft)
11.08.2020 12:25 32,1 C 43 % 1015,2 hPa 0,0 l/m 9,2 km/h (2 Bft) SO 142 5 min 684 W/m 17,9 C 32,0 C 19,3 km/h (3 Bft)
11.08.2020 12:20 32,2 C 42 % 1015,2 hPa 0,0 l/m 4,3 km/h (1 Bft) O 85 5 min 670 W/m 17,6 C 32,2 C 17,7 km/h (3 Bft)
11.08.2020 12:15 32,2 C 42 % 1015,2 hPa 0,0 l/m 4,7 km/h (1 Bft) S-SO 153 5 min 663 W/m 17,6 C 32,2 C 16,1 km/h (3 Bft)
11.08.2020 12:10 32,2 C 42 % 1015,2 hPa 0,0 l/m 8,7 km/h (2 Bft) SO 128 5 min 691 W/m 17,6 C 32,1 C 16,1 km/h (3 Bft)
11.08.2020 12:05 31,8 C 44 % 1015,2 hPa 0,0 l/m 2,6 km/h (1 Bft) SO 130 5 min 650 W/m 18,0 C 31,8 C 14,5 km/h (3 Bft)
11.08.2020 12:00 31,6 C 45 % 1015,3 hPa 0,0 l/m 0,1 km/h (0 Bft) O-SO 122 5 min 703 W/m 18,2 C 31,6 C 4,8 km/h (1 Bft)
11.08.2020 11:55 31,4 C 45 % 1015,3 hPa 0,0 l/m 0,1 km/h (0 Bft) SO 125 5 min 714 W/m 18,0 C 31,4 C 3,2 km/h (1 Bft)
11.08.2020 11:50 31,2 C 47 % 1015,3 hPa 0,0 l/m 0,3 km/h (0 Bft) O-SO 117 5 min 712 W/m 18,5 C 31,2 C 4,8 km/h (1 Bft)
11.08.2020 11:45 30,9 C 47 % 1015,4 hPa 0,0 l/m 0,1 km/h (0 Bft) O-SO 117 5 min 703 W/m 18,2 C 30,9 C 1,6 km/h (1 Bft)
11.08.2020 11:40 30,8 C 46 % 1015,4 hPa 0,0 l/m 1,7 km/h (1 Bft) O-SO 117 5 min 675 W/m 17,8 C 30,8 C 11,3 km/h (2 Bft)
11.08.2020 11:35 30,7 C 46 % 1015,4 hPa 0,0 l/m 1,8 km/h (1 Bft) O-SO 102 5 min 680 W/m 17,7 C 30,7 C 12,9 km/h (3 Bft)
11.08.2020 11:30 30,6 C 47 % 1015,4 hPa 0,0 l/m 0,0 km/h (0 Bft) O-SO 123 5 min 684 W/m 18,0 C 30,6 C 0,0 km/h (0 Bft)
11.08.2020 11:25 30,4 C 47 % 1015,4 hPa 0,0 l/m 0,6 km/h (0 Bft) O-SO 123 5 min 670 W/m 17,8 C 30,4 C 6,4 km/h (2 Bft)
11.08.2020 11:20 30,5 C 46 % 1015,4 hPa 0,0 l/m 3,5 km/h (1 Bft) O-SO 122 5 min 670 W/m 17,5 C 30,5 C 11,3 km/h (2 Bft)
11.08.2020 11:15 30,4 C 47 % 1015,3 hPa 0,0 l/m 4,9 km/h (1 Bft) O-SO 119 5 min 650 W/m 17,8 C 30,4 C 12,9 km/h (3 Bft)
11.08.2020 11:10 30,4 C 47 % 1015,4 hPa 0,0 l/m 1,8 km/h (1 Bft) SO 133 5 min 613 W/m 17,8 C 30,4 C 11,3 km/h (2 Bft)
11.08.2020 11:05 30,4 C 47 % 1015,4 hPa 0,0 l/m 2,7 km/h (1 Bft) SO 128 5 min 654 W/m 17,8 C 30,4 C 12,9 km/h (3 Bft)
11.08.2020 11:00 30,2 C 48 % 1015,4 hPa 0,0 l/m 2,3 km/h (1 Bft) O-SO 114 5 min 619 W/m 17,9 C 30,2 C 12,9 km/h (3 Bft)
11.08.2020 10:55 30,1 C 48 % 1015,4 hPa 0,0 l/m 1,3 km/h (1 Bft) O-SO 113 5 min 613 W/m 17,9 C 30,1 C 9,7 km/h (2 Bft)
11.08.2020 10:50 29,8 C 49 % 1015,3 hPa 0,0 l/m 0,0 km/h (0 Bft) SW 224 5 min 601 W/m 17,9 C 29,8 C 1,6 km/h (1 Bft)
11.08.2020 10:45 29,6 C 49 % 1015,3 hPa 0,0 l/m 0,0 km/h (0 Bft) SW 225 5 min 589 W/m 17,7 C 29,6 C 1,6 km/h (1 Bft)
11.08.2020 10:40 29,4 C 50 % 1015,3 hPa 0,0 l/m 0,2 km/h (0 Bft) SW 224 5 min 578 W/m 17,9 C 29,4 C 3,2 km/h (1 Bft)
11.08.2020 10:35 29,3 C 51 % 1015,3 hPa 0,0 l/m 3,6 km/h (1 Bft) SO 128 5 min 564 W/m 18,1 C 29,3 C 16,1 km/h (3 Bft)
11.08.2020 10:30 29,2 C 50 % 1015,4 hPa 0,0 l/m 1,2 km/h (1 Bft) O 94 5 min 554 W/m 17,7 C 29,2 C 14,5 km/h (3 Bft)
11.08.2020 10:25 29,1 C 50 % 1015,4 hPa 0,0 l/m 2,0 km/h (1 Bft) O-SO 107 5 min 545 W/m 17,6 C 29,1 C 11,3 km/h (2 Bft)
11.08.2020 10:20 28,9 C 52 % 1015,4 hPa 0,0 l/m 0,0 km/h (0 Bft) SO 128 5 min 543 W/m 18,0 C 28,9 C 1,6 km/h (1 Bft)
11.08.2020 10:15 28,6 C 52 % 1015,4 hPa 0,0 l/m 1,8 km/h (1 Bft) SO 128 5 min 529 W/m 17,8 C 28,6 C 9,7 km/h (2 Bft)
11.08.2020 10:10 28,3 C 53 % 1015,5 hPa 0,0 l/m 0,0 km/h (0 Bft) O 96 5 min 517 W/m 17,8 C 28,3 C 0,0 km/h (0 Bft)
11.08.2020 10:05 28,1 C 54 % 1015,4 hPa 0,0 l/m 0,0 km/h (0 Bft) O 96 5 min 506 W/m 17,9 C 28,1 C 0,0 km/h (0 Bft)
11.08.2020 10:00 27,9 C 54 % 1015,4 hPa 0,0 l/m 0,3 km/h (0 Bft) O 96 5 min 496 W/m 17,7 C 27,9 C 6,4 km/h (2 Bft)
11.08.2020 09:55 27,5 C 55 % 1015,3 hPa 0,0 l/m 1,0 km/h (0 Bft) O 90 5 min 482 W/m 17,6 C 27,5 C 8,0 km/h (2 Bft)
11.08.2020 09:50 26,9 C 58 % 1015,3 hPa 0,0 l/m 0,0 km/h (0 Bft) N-NW 334 5 min 380 W/m 17,9 C 26,9 C 0,0 km/h (0 Bft)
11.08.2020 09:45 26,6 C 60 % 1015,2 hPa 0,0 l/m 1,0 km/h (0 Bft) N-NW 334 5 min 438 W/m 18,2 C 26,6 C 6,4 km/h (2 Bft)
11.08.2020 09:40 26,0 C 62 % 1015,2 hPa 0,0 l/m 0,0 km/h (0 Bft) N-NW 335 5 min 441 W/m 18,1 C 26,0 C 1,6 km/h (1 Bft)
11.08.2020 09:35 25,3 C 66 % 1015,3 hPa 0,0 l/m 0,0 km/h (0 Bft) N-NW 335 5 min 432 W/m 18,5 C 25,3 C 0,0 km/h (0 Bft)
11.08.2020 09:30 25,0 C 67 % 1015,3 hPa 0,0 l/m 0,0 km/h (0 Bft) N-NW 334 5 min 422 W/m 18,4 C 25,0 C 1,6 km/h (1 Bft)
11.08.2020 09:25 24,7 C 69 % 1015,2 hPa 0,0 l/m 0,0 km/h (0 Bft) N-NW 334 5 min 404 W/m 18,6 C 24,7 C 1,6 km/h (1 Bft)
11.08.2020 09:20 24,3 C 70 % 1015,2 hPa 0,0 l/m 0,0 km/h (0 Bft) N-NW 335 5 min 394 W/m 18,5 C 24,3 C 0,0 km/h (0 Bft)
11.08.2020 09:15 23,8 C 71 % 1015,2 hPa 0,0 l/m 0,0 km/h (0 Bft) N-NW 335 5 min 381 W/m 18,2 C 23,8 C 0,0 km/h (0 Bft)
11.08.2020 09:10 23,5 C 73 % 1015,2 hPa 0,0 l/m 0,1 km/h (0 Bft) N-NW 334 5 min 366 W/m 18,4 C 23,5 C 3,2 km/h (1 Bft)
11.08.2020 09:05 23,2 C 74 % 1015,3 hPa 0,0 l/m 1,2 km/h (1 Bft) N-NW 335 5 min 353 W/m 18,3 C 23,2 C 6,4 km/h (2 Bft)
11.08.2020 09:00 22,8 C 75 % 1015,3 hPa 0,0 l/m 0,4 km/h (0 Bft) N-NW 336 5 min 343 W/m 18,1 C 22,8 C 4,8 km/h (1 Bft)
11.08.2020 08:55 22,6 C 76 % 1015,4 hPa 0,0 l/m 0,6 km/h (0 Bft) N-NW 336 5 min 330 W/m 18,1 C 22,6 C 4,8 km/h (1 Bft)
11.08.2020 08:50 22,2 C 77 % 1015,2 hPa 0,0 l/m 1,9 km/h (1 Bft) N-NW 337 5 min 315 W/m 18,0 C 22,2 C 6,4 km/h (2 Bft)
11.08.2020 08:45 21,9 C 78 % 1015,2 hPa 0,0 l/m 1,8 km/h (1 Bft) N-NW 339 5 min 297 W/m 17,9 C 21,9 C 8,0 km/h (2 Bft)
11.08.2020 08:40 21,6 C 80 % 1015,2 hPa 0,0 l/m 1,1 km/h (1 Bft) N-NW 339 5 min 278 W/m 18,0 C 21,6 C 6,4 km/h (2 Bft)
11.08.2020 08:35 21,3 C 81 % 1015,1 hPa 0,0 l/m 0,0 km/h (0 Bft) N-NW 338 5 min 250 W/m 17,9 C 21,3 C 0,0 km/h (0 Bft)
11.08.2020 08:30 21,1 C 82 % 1015,2 hPa 0,0 l/m 0,0 km/h (0 Bft) N-NW 339 5 min 156 W/m 17,9 C 21,1 C 1,6 km/h (1 Bft)
11.08.2020 08:25 20,8 C 82 % 1015,1 hPa 0,0 l/m 0,0 km/h (0 Bft) N-NW 340 0 min 88 W/m 17,6 C 20,8 C 0,0 km/h (0 Bft)
11.08.2020 08:20 20,6 C 83 % 1015,1 hPa 0,0 l/m 1,3 km/h (1 Bft) N-NW 340 0 min 76 W/m 17,6 C 20,6 C 6,4 km/h (2 Bft)
11.08.2020 08:15 20,4 C 83 % 1015,1 hPa 0,0 l/m 1,0 km/h (0 Bft) N-NW 340 0 min 74 W/m 17,4 C 20,4 C 4,8 km/h (1 Bft)
11.08.2020 08:10 20,2 C 84 % 1015,1 hPa 0,0 l/m 0,1 km/h (0 Bft) N-NW 340 0 min 70 W/m 17,4 C 20,2 C 1,6 km/h (1 Bft)
11.08.2020 08:05 20,0 C 85 % 1015,1 hPa 0,0 l/m 0,0 km/h (0 Bft) N-NW 340 0 min 67 W/m 17,4 C 20,0 C 0,0 km/h (0 Bft)
11.08.2020 08:00 19,8 C 85 % 1015,1 hPa 0,0 l/m 0,2 km/h (0 Bft) N-NW 340 0 min 65 W/m 17,2 C 19,8 C 4,8 km/h (1 Bft)
11.08.2020 07:55 19,5 C 86 % 1015,0 hPa 0,0 l/m 0,0 km/h (0 Bft) N-NW 340 0 min 58 W/m 17,1 C 19,5 C 0,0 km/h (0 Bft)
11.08.2020 07:50 19,3 C 87 % 1015,0 hPa 0,0 l/m 0,7 km/h (0 Bft) N-NW 340 0 min 54 W/m 17,1 C 19,3 C 4,8 km/h (1 Bft)
11.08.2020 07:45 19,0 C 89 % 1015,0 hPa 0,0 l/m 0,2 km/h (0 Bft) N-NW 340 0 min 53 W/m 17,1 C 19,0 C 3,2 km/h (1 Bft)
11.08.2020 07:40 18,8 C 90 % 1015,0 hPa 0,0 l/m 0,3 km/h (0 Bft) N-NW 340 0 min 51 W/m 17,1 C 18,8 C 3,2 km/h (1 Bft)
11.08.2020 07:35 18,5 C 90 % 1014,9 hPa 0,0 l/m 0,0 km/h (0 Bft) N-NW 340 0 min 46 W/m 16,8 C 18,5 C 0,0 km/h (0 Bft)
11.08.2020 07:30 18,3 C 91 % 1014,9 hPa 0,0 l/m 0,0 km/h (0 Bft) N-NW 340 0 min 44 W/m 16,8 C 18,3 C 0,0 km/h (0 Bft)
11.08.2020 07:25 18,1 C 91 % 1014,9 hPa 0,0 l/m 0,0 km/h (0 Bft) N-NW 340 0 min 42 W/m 16,6 C 18,1 C 0,0 km/h (0 Bft)
11.08.2020 07:20 17,9 C 91 % 1014,9 hPa 0,0 l/m 0,0 km/h (0 Bft) N-NW 340 0 min 39 W/m 16,4 C 17,9 C 0,0 km/h (0 Bft)
11.08.2020 07:15 17,7 C 90 % 1014,9 hPa 0,0 l/m 0,0 km/h (0 Bft) N-NW 340 0 min 35 W/m 16,0 C 17,7 C 0,0 km/h (0 Bft)
11.08.2020 07:10 17,6 C 91 % 1014,9 hPa 0,0 l/m 0,0 km/h (0 Bft) N-NW 340 0 min 33 W/m 16,1 C 17,6 C 0,0 km/h (0 Bft)
11.08.2020 07:05 17,4 C 90 % 1014,9 hPa 0,0 l/m 0,0 km/h (0 Bft) N-NW 340 0 min 30 W/m 15,7 C 17,4 C 0,0 km/h (0 Bft)
11.08.2020 07:00 17,3 C 90 % 1014,9 hPa 0,0 l/m 0,0 km/h (0 Bft) N-NW 340 0 min 26 W/m 15,6 C 17,3 C 0,0 km/h (0 Bft)
11.08.2020 06:55 17,3 C 89 % 1014,9 hPa 0,0 l/m 0,0 km/h (0 Bft) N-NW 340 0 min 25 W/m 15,5 C 17,3 C 0,0 km/h (0 Bft)
11.08.2020 06:50 17,3 C 89 % 1014,9 hPa 0,0 l/m 0,0 km/h (0 Bft) N-NW 340 0 min 21 W/m 15,5 C 17,3 C 0,0 km/h (0 Bft)
11.08.2020 06:45 17,3 C 89 % 1014,9 hPa 0,0 l/m 0,0 km/h (0 Bft) N-NW 340 0 min 19 W/m 15,5 C 17,3 C 0,0 km/h (0 Bft)
11.08.2020 06:40 17,4 C 89 % 1014,8 hPa 0,0 l/m 0,0 km/h (0 Bft) N-NW 340 0 min 16 W/m 15,6 C 17,4 C 0,0 km/h (0 Bft)
11.08.2020 06:35 17,4 C 88 % 1014,8 hPa 0,0 l/m 0,0 km/h (0 Bft) N-NW 340 0 min 14 W/m 15,4 C 17,4 C 0,0 km/h (0 Bft)
11.08.2020 06:30 17,4 C 88 % 1014,7 hPa 0,0 l/m 0,0 km/h (0 Bft) N-NW 340 0 min 11 W/m 15,4 C 17,4 C 0,0 km/h (0 Bft)
11.08.2020 06:25 17,6 C 87 % 1014,6 hPa 0,0 l/m 0,0 km/h (0 Bft) N-NW 340 0 min 7 W/m 15,4 C 17,6 C 0,0 km/h (0 Bft)
11.08.2020 06:20 17,7 C 88 % 1014,6 hPa 0,0 l/m 0,0 km/h (0 Bft) N-NW 340 0 min 5 W/m 15,7 C 17,7 C 0,0 km/h (0 Bft)
11.08.2020 06:15 17,7 C 87 % 1014,6 hPa 0,0 l/m 0,0 km/h (0 Bft) N-NW 340 0 min 0 W/m 15,5 C 17,7 C 0,0 km/h (0 Bft)
11.08.2020 06:10 17,8 C 87 % 1014,5 hPa 0,0 l/m 0,0 km/h (0 Bft) N-NW 340 0 min 0 W/m 15,6 C 17,8 C 0,0 km/h (0 Bft)
11.08.2020 06:05 18,0 C 87 % 1014,6 hPa 0,0 l/m 0,0 km/h (0 Bft) N-NW 340 0 min 0 W/m 15,8 C 18,0 C 0,0 km/h (0 Bft)
11.08.2020 05:55 18,2 C 86 % 1014,5 hPa 0,0 l/m 0,0 km/h (0 Bft) N 0 0 min 0 W/m 15,8 C 18,2 C 0,0 km/h (0 Bft)
11.08.2020 05:50 18,3 C 87 % 1014,5 hPa 0,0 l/m 0,0 km/h (0 Bft) N 0 0 min 0 W/m 16,1 C 18,3 C 0,0 km/h (0 Bft)
11.08.2020 05:45 18,3 C 86 % 1014,5 hPa 0,0 l/m 0,0 km/h (0 Bft) N 0 0 min 0 W/m 15,9 C 18,3 C 0,0 km/h (0 Bft)
11.08.2020 05:40 18,4 C 85 % 1014,5 hPa 0,0 l/m 0,0 km/h (0 Bft) N 0 0 min 0 W/m 15,8 C 18,4 C 0,0 km/h (0 Bft)
11.08.2020 05:35 18,6 C 85 % 1014,4 hPa 0,0 l/m 0,0 km/h (0 Bft) N 0 0 min 0 W/m 16,0 C 18,6 C 0,0 km/h (0 Bft)
11.08.2020 05:30 18,7 C 85 % 1014,4 hPa 0,0 l/m 0,0 km/h (0 Bft) N 0 0 min 0 W/m 16,1 C 18,7 C 0,0 km/h (0 Bft)
11.08.2020 05:25 18,8 C 85 % 1014,4 hPa 0,0 l/m 0,0 km/h (0 Bft) N 0 0 min 0 W/m 16,2 C 18,8 C 0,0 km/h (0 Bft)
11.08.2020 05:20 18,8 C 85 % 1014,4 hPa 0,0 l/m 0,0 km/h (0 Bft) N 0 0 min 0 W/m 16,2 C 18,8 C 0,0 km/h (0 Bft)
11.08.2020 05:15 18,8 C 85 % 1014,3 hPa 0,0 l/m 0,0 km/h (0 Bft) N 0 0 min 0 W/m 16,2 C 18,8 C 0,0 km/h (0 Bft)
11.08.2020 05:10 18,9 C 84 % 1014,4 hPa 0,0 l/m 0,0 km/h (0 Bft) N 0 0 min 0 W/m 16,1 C 18,9 C 0,0 km/h (0 Bft)
11.08.2020 05:05 19,1 C 84 % 1014,4 hPa 0,0 l/m 0,0 km/h (0 Bft) N 0 0 min 0 W/m 16,3 C 19,1 C 0,0 km/h (0 Bft)
11.08.2020 05:00 19,1 C 84 % 1014,4 hPa 0,0 l/m 0,0 km/h (0 Bft) N 0 0 min 0 W/m 16,3 C 19,1 C 0,0 km/h (0 Bft)
11.08.2020 04:55 19,3 C 84 % 1014,3 hPa 0,0 l/m 0,0 km/h (0 Bft) N 0 0 min 0 W/m 16,5 C 19,3 C 0,0 km/h (0 Bft)
11.08.2020 04:50 19,4 C 84 % 1014,3 hPa 0,0 l/m 0,0 km/h (0 Bft) N 0 0 min 0 W/m 16,6 C 19,4 C 0,0 km/h (0 Bft)
11.08.2020 04:45 19,4 C 84 % 1014,3 hPa 0,0 l/m 0,0 km/h (0 Bft) N 0 0 min 0 W/m 16,6 C 19,4 C 0,0 km/h (0 Bft)
11.08.2020 04:40 19,3 C 84 % 1014,4 hPa 0,0 l/m 0,0 km/h (0 Bft) N 0 0 min 0 W/m 16,5 C 19,3 C 0,0 km/h (0 Bft)
11.08.2020 04:35 19,3 C 84 % 1014,4 hPa 0,0 l/m 0,0 km/h (0 Bft) N 0 0 min 0 W/m 16,5 C 19,3 C 0,0 km/h (0 Bft)
11.08.2020 04:30 19,4 C 83 % 1014,5 hPa 0,0 l/m 0,0 km/h (0 Bft) N 0 0 min 0 W/m 16,4 C 19,4 C 0,0 km/h (0 Bft)
11.08.2020 04:25 19,6 C 83 % 1014,5 hPa 0,0 l/m 0,0 km/h (0 Bft) N 0 0 min 0 W/m 16,6 C 19,6 C 0,0 km/h (0 Bft)
11.08.2020 04:20 19,6 C 83 % 1014,5 hPa 0,0 l/m 0,0 km/h (0 Bft) N 0 0 min 0 W/m 16,6 C 19,6 C 0,0 km/h (0 Bft)
11.08.2020 04:15 19,7 C 83 % 1014,5 hPa 0,0 l/m 0,0 km/h (0 Bft) N 0 0 min 0 W/m 16,7 C 19,7 C 0,0 km/h (0 Bft)
11.08.2020 04:10 19,7 C 83 % 1014,5 hPa 0,0 l/m 0,0 km/h (0 Bft) N 0 0 min 0 W/m 16,7 C 19,7 C 0,0 km/h (0 Bft)
11.08.2020 04:05 19,6 C 84 % 1014,4 hPa 0,0 l/m 0,0 km/h (0 Bft) N 0 0 min 0 W/m 16,8 C 19,6 C 0,0 km/h (0 Bft)
11.08.2020 04:00 19,5 C 84 % 1014,4 hPa 0,0 l/m 0,0 km/h (0 Bft) N 0 0 min 0 W/m 16,7 C 19,5 C 0,0 km/h (0 Bft)
11.08.2020 03:55 19,5 C 84 % 1014,3 hPa 0,0 l/m 0,0 km/h (0 Bft) N 0 0 min 0 W/m 16,7 C 19,5 C 0,0 km/h (0 Bft)
11.08.2020 03:50 19,5 C 84 % 1014,2 hPa 0,0 l/m 0,0 km/h (0 Bft) N 0 0 min 0 W/m 16,7 C 19,5 C 0,0 km/h (0 Bft)
11.08.2020 03:45 19,4 C 84 % 1014,3 hPa 0,0 l/m 0,0 km/h (0 Bft) N 0 0 min 0 W/m 16,6 C 19,4 C 0,0 km/h (0 Bft)
11.08.2020 03:40 19,4 C 84 % 1014,2 hPa 0,0 l/m 0,0 km/h (0 Bft) N 0 0 min 0 W/m 16,6 C 19,4 C 0,0 km/h (0 Bft)
11.08.2020 03:35 19,3 C 84 % 1014,3 hPa 0,0 l/m 0,0 km/h (0 Bft) N 0 0 min 0 W/m 16,5 C 19,3 C 0,0 km/h (0 Bft)
11.08.2020 03:30 19,3 C 85 % 1014,4 hPa 0,0 l/m 0,0 km/h (0 Bft) N 0 0 min 0 W/m 16,7 C 19,3 C 0,0 km/h (0 Bft)
11.08.2020 03:25 19,4 C 84 % 1014,4 hPa 0,0 l/m 0,0 km/h (0 Bft) N 0 0 min 0 W/m 16,6 C 19,4 C 0,0 km/h (0 Bft)
11.08.2020 03:20 19,4 C 84 % 1014,3 hPa 0,0 l/m 0,0 km/h (0 Bft) N 0 0 min 0 W/m 16,6 C 19,4 C 0,0 km/h (0 Bft)
11.08.2020 03:15 19,5 C 84 % 1014,3 hPa 0,0 l/m 0,0 km/h (0 Bft) N 0 0 min 0 W/m 16,7 C 19,5 C 0,0 km/h (0 Bft)
11.08.2020 03:10 19,6 C 84 % 1014,3 hPa 0,0 l/m 0,0 km/h (0 Bft) N 0 0 min 0 W/m 16,8 C 19,6 C 0,0 km/h (0 Bft)
11.08.2020 03:05 19,7 C 83 % 1014,3 hPa 0,0 l/m 0,0 km/h (0 Bft) N 0 0 min 0 W/m 16,7 C 19,7 C 0,0 km/h (0 Bft)
11.08.2020 03:00 19,7 C 84 % 1014,3 hPa 0,0 l/m 0,0 km/h (0 Bft) N 0 0 min 0 W/m 16,9 C 19,7 C 0,0 km/h (0 Bft)
11.08.2020 02:55 19,7 C 84 % 1014,3 hPa 0,0 l/m 0,0 km/h (0 Bft) N 0 0 min 0 W/m 16,9 C 19,7 C 0,0 km/h (0 Bft)
11.08.2020 02:50 19,7 C 84 % 1014,4 hPa 0,0 l/m 0,0 km/h (0 Bft) N 0 0 min 0 W/m 16,9 C 19,7 C 0,0 km/h (0 Bft)
11.08.2020 02:45 19,8 C 83 % 1014,3 hPa 0,0 l/m 0,0 km/h (0 Bft) N 0 0 min 0 W/m 16,8 C 19,8 C 0,0 km/h (0 Bft)
11.08.2020 02:40 19,8 C 82 % 1014,3 hPa 0,0 l/m 0,0 km/h (0 Bft) N 0 0 min 0 W/m 16,6 C 19,8 C 0,0 km/h (0 Bft)
11.08.2020 02:35 20,0 C 82 % 1014,3 hPa 0,0 l/m 0,0 km/h (0 Bft) N 0 0 min 0 W/m 16,8 C 20,0 C 0,0 km/h (0 Bft)
11.08.2020 02:30 20,1 C 82 % 1014,4 hPa 0,0 l/m 0,0 km/h (0 Bft) N 0 0 min 0 W/m 16,9 C 20,1 C 0,0 km/h (0 Bft)
11.08.2020 02:25 20,1 C 82 % 1014,3 hPa 0,0 l/m 0,0 km/h (0 Bft) N 0 0 min 0 W/m 16,9 C 20,1 C 0,0 km/h (0 Bft)
11.08.2020 02:20 20,2 C 83 % 1014,4 hPa 0,0 l/m 0,0 km/h (0 Bft) N 0 0 min 0 W/m 17,2 C 20,2 C 0,0 km/h (0 Bft)
11.08.2020 02:15 20,1 C 83 % 1014,4 hPa 0,0 l/m 0,0 km/h (0 Bft) N 0 0 min 0 W/m 17,1 C 20,1 C 0,0 km/h (0 Bft)
11.08.2020 02:10 20,1 C 83 % 1014,5 hPa 0,0 l/m 0,0 km/h (0 Bft) N 0 0 min 0 W/m 17,1 C 20,1 C 0,0 km/h (0 Bft)
11.08.2020 02:05 20,1 C 83 % 1014,5 hPa 0,0 l/m 0,0 km/h (0 Bft) N 0 0 min 0 W/m 17,1 C 20,1 C 0,0 km/h (0 Bft)
11.08.2020 02:00 20,1 C 83 % 1014,5 hPa 0,0 l/m 0,0 km/h (0 Bft) N 0 0 min 0 W/m 17,1 C 20,1 C 0,0 km/h (0 Bft)
11.08.2020 01:55 20,2 C 82 % 1014,5 hPa 0,0 l/m 0,0 km/h (0 Bft) N 0 0 min 0 W/m 17,0 C 20,2 C 0,0 km/h (0 Bft)
11.08.2020 01:50 20,3 C 81 % 1014,5 hPa 0,0 l/m 0,0 km/h (0 Bft) N 0 0 min 0 W/m 16,9 C 20,3 C 0,0 km/h (0 Bft)
11.08.2020 01:45 20,4 C 82 % 1014,5 hPa 0,0 l/m 0,0 km/h (0 Bft) N 0 0 min 0 W/m 17,2 C 20,4 C 0,0 km/h (0 Bft)
11.08.2020 01:40 20,4 C 82 % 1014,6 hPa 0,0 l/m 0,0 km/h (0 Bft) N 0 0 min 0 W/m 17,2 C 20,4 C 0,0 km/h (0 Bft)
11.08.2020 01:35 20,6 C 81 % 1014,6 hPa 0,0 l/m 0,0 km/h (0 Bft) N 0 0 min 0 W/m 17,2 C 20,6 C 0,0 km/h (0 Bft)
11.08.2020 01:30 20,6 C 80 % 1014,5 hPa 0,0 l/m 0,0 km/h (0 Bft) N 0 0 min 0 W/m 17,0 C 20,6 C 0,0 km/h (0 Bft)
11.08.2020 01:25 20,7 C 80 % 1014,6 hPa 0,0 l/m 0,0 km/h (0 Bft) N 0 0 min 0 W/m 17,1 C 20,7 C 0,0 km/h (0 Bft)
11.08.2020 01:20 20,8 C 80 % 1014,6 hPa 0,0 l/m 0,0 km/h (0 Bft) N 0 0 min 0 W/m 17,2 C 20,8 C 0,0 km/h (0 Bft)
11.08.2020 01:15 20,9 C 80 % 1014,6 hPa 0,0 l/m 0,0 km/h (0 Bft) N 0 0 min 0 W/m 17,3 C 20,9 C 0,0 km/h (0 Bft)
11.08.2020 01:10 21,1 C 79 % 1014,6 hPa 0,0 l/m 0,0 km/h (0 Bft) N 0 0 min 0 W/m 17,3 C 21,1 C 0,0 km/h (0 Bft)
11.08.2020 01:05 21,2 C 79 % 1014,6 hPa 0,0 l/m 0,0 km/h (0 Bft) N 0 0 min 0 W/m 17,4 C 21,2 C 0,0 km/h (0 Bft)
11.08.2020 01:00 21,2 C 78 % 1014,5 hPa 0,0 l/m 0,0 km/h (0 Bft) N 0 0 min 0 W/m 17,2 C 21,2 C 0,0 km/h (0 Bft)
11.08.2020 00:55 21,3 C 78 % 1014,5 hPa 0,0 l/m 0,0 km/h (0 Bft) N 0 0 min 0 W/m 17,3 C 21,3 C 0,0 km/h (0 Bft)
11.08.2020 00:50 21,4 C 77 % 1014,4 hPa 0,0 l/m 0,0 km/h (0 Bft) N 0 0 min 0 W/m 17,2 C 21,4 C 0,0 km/h (0 Bft)
11.08.2020 00:45 21,6 C 77 % 1014,4 hPa 0,0 l/m 0,0 km/h (0 Bft) N 0 0 min 0 W/m 17,4 C 21,6 C 0,0 km/h (0 Bft)
11.08.2020 00:40 21,7 C 77 % 1014,4 hPa 0,0 l/m 0,0 km/h (0 Bft) N 0 0 min 0 W/m 17,5 C 21,7 C 0,0 km/h (0 Bft)
11.08.2020 00:35 21,8 C 76 % 1014,4 hPa 0,0 l/m 0,0 km/h (0 Bft) N 0 0 min 0 W/m 17,4 C 21,8 C 0,0 km/h (0 Bft)
11.08.2020 00:30 21,9 C 76 % 1014,3 hPa 0,0 l/m 0,0 km/h (0 Bft) N 0 0 min 0 W/m 17,5 C 21,9 C 0,0 km/h (0 Bft)
11.08.2020 00:25 22,0 C 76 % 1014,3 hPa 0,0 l/m 0,0 km/h (0 Bft) N 0 0 min 0 W/m 17,6 C 22,0 C 0,0 km/h (0 Bft)
11.08.2020 00:20 22,1 C 75 % 1014,3 hPa 0,0 l/m 0,0 km/h (0 Bft) N 0 0 min 0 W/m 17,5 C 22,1 C 0,0 km/h (0 Bft)
11.08.2020 00:15 22,2 C 75 % 1014,3 hPa 0,0 l/m 0,0 km/h (0 Bft) N 0 0 min 0 W/m 17,5 C 22,2 C 0,0 km/h (0 Bft)
11.08.2020 00:10 22,3 C 75 % 1014,2 hPa 0,0 l/m 0,0 km/h (0 Bft) N 0 0 min 0 W/m 17,6 C 22,3 C 0,0 km/h (0 Bft)
11.08.2020 00:05 22,4 C 75 % 1014,1 hPa 0,0 l/m 0,0 km/h (0 Bft) N 0 0 min 0 W/m 17,7 C 22,4 C 0,0 km/h (0 Bft)
11.08.2020 00:00 22,5 C 74 % 1014,0 hPa 0,0 l/m 0,0 km/h (0 Bft) N 0 0 min 0 W/m 17,6 C 22,5 C 0,0 km/h (0 Bft)
10.08.2020 23:55 22,6 C 75 % 1014,1 hPa 0,0 l/m 0,0 km/h (0 Bft) N-NW 337 0 min 0 W/m 17,9 C 22,6 C 3,2 km/h (1 Bft)
10.08.2020 23:50 22,4 C 75 % 1014,0 hPa 0,0 l/m 0,0 km/h (0 Bft) N 0 0 min 0 W/m 17,7 C 22,4 C 0,0 km/h (0 Bft)
10.08.2020 23:45 22,5 C 75 % 1013,9 hPa 0,0 l/m 0,0 km/h (0 Bft) N 0 0 min 0 W/m 17,8 C 22,5 C 0,0 km/h (0 Bft)
10.08.2020 23:40 22,5 C 75 % 1013,8 hPa 0,0 l/m 0,0 km/h (0 Bft) N 0 0 min 0 W/m 17,8 C 22,5 C 0,0 km/h (0 Bft)
10.08.2020 23:35 22,6 C 75 % 1013,8 hPa 0,0 l/m 0,0 km/h (0 Bft) N 0 0 min 0 W/m 17,9 C 22,6 C 0,0 km/h (0 Bft)
10.08.2020 23:30 22,7 C 75 % 1013,7 hPa 0,0 l/m 0,0 km/h (0 Bft) N 0 0 min 0 W/m 18,0 C 22,7 C 0,0 km/h (0 Bft)
10.08.2020 23:25 22,9 C 75 % 1013,7 hPa 0,0 l/m 0,0 km/h (0 Bft) N 0 0 min 0 W/m 18,2 C 22,9 C 0,0 km/h (0 Bft)
10.08.2020 23:20 23,1 C 74 % 1013,7 hPa 0,0 l/m 0,0 km/h (0 Bft) N 0 0 min 0 W/m 18,2 C 23,1 C 0,0 km/h (0 Bft)
10.08.2020 23:15 23,2 C 74 % 1013,7 hPa 0,0 l/m 0,0 km/h (0 Bft) N 0 0 min 0 W/m 18,3 C 23,2 C 0,0 km/h (0 Bft)
10.08.2020 23:10 23,3 C 73 % 1013,7 hPa 0,0 l/m 0,0 km/h (0 Bft) N 0 0 min 0 W/m 18,2 C 23,3 C 0,0 km/h (0 Bft)
10.08.2020 23:05 23,4 C 73 % 1013,7 hPa 0,0 l/m 0,0 km/h (0 Bft) N 0 0 min 0 W/m 18,3 C 23,4 C 0,0 km/h (0 Bft)
10.08.2020 23:00 23,6 C 72 % 1013,8 hPa 0,0 l/m 0,0 km/h (0 Bft) N-NW 340 0 min 0 W/m 18,2 C 23,6 C 0,0 km/h (0 Bft)
10.08.2020 22:55 23,7 C 72 % 1013,8 hPa 0,0 l/m 0,0 km/h (0 Bft) N-NW 340 0 min 0 W/m 18,3 C 23,7 C 0,0 km/h (0 Bft)
10.08.2020 22:50 23,8 C 72 % 1013,8 hPa 0,0 l/m 0,0 km/h (0 Bft) N-NW 340 0 min 0 W/m 18,4 C 23,8 C 0,0 km/h (0 Bft)
10.08.2020 22:45 23,9 C 71 % 1013,7 hPa 0,0 l/m 0,0 km/h (0 Bft) N-NW 340 0 min 0 W/m 18,3 C 23,9 C 0,0 km/h (0 Bft)
10.08.2020 22:40 24,1 C 70 % 1013,7 hPa 0,0 l/m 0,0 km/h (0 Bft) N-NW 340 0 min 0 W/m 18,3 C 24,1 C 0,0 km/h (0 Bft)
10.08.2020 22:35 24,2 C 70 % 1013,8 hPa 0,0 l/m 0,0 km/h (0 Bft) N-NW 340 0 min 0 W/m 18,4 C 24,2 C 0,0 km/h (0 Bft)
10.08.2020 22:30 24,4 C 69 % 1013,9 hPa 0,0 l/m 0,0 km/h (0 Bft) N-NW 340 0 min 0 W/m 18,3 C 24,4 C 0,0 km/h (0 Bft)
10.08.2020 22:25 24,7 C 68 % 1013,8 hPa 0,0 l/m 0,0 km/h (0 Bft) N-NW 340 0 min 0 W/m 18,4 C 24,7 C 0,0 km/h (0 Bft)
10.08.2020 22:20 25,0 C 67 % 1013,7 hPa 0,0 l/m 0,0 km/h (0 Bft) N-NW 340 0 min 0 W/m 18,4 C 25,0 C 0,0 km/h (0 Bft)
10.08.2020 22:15 25,1 C 66 % 1013,7 hPa 0,0 l/m 0,0 km/h (0 Bft) N-NW 340 0 min 0 W/m 18,3 C 25,1 C 0,0 km/h (0 Bft)
10.08.2020 22:10 25,4 C 65 % 1013,6 hPa 0,0 l/m 0,0 km/h (0 Bft) N-NW 340 0 min 0 W/m 18,3 C 25,4 C 0,0 km/h (0 Bft)
10.08.2020 22:05 25,7 C 64 % 1013,5 hPa 0,0 l/m 0,0 km/h (0 Bft) N-NW 340 0 min 0 W/m 18,4 C 25,7 C 0,0 km/h (0 Bft)
10.08.2020 22:00 25,8 C 64 % 1013,4 hPa 0,0 l/m 0,0 km/h (0 Bft) N-NW 340 0 min 0 W/m 18,5 C 25,8 C 0,0 km/h (0 Bft)
10.08.2020 21:55 26,1 C 63 % 1013,4 hPa 0,0 l/m 0,0 km/h (0 Bft) N-NW 340 0 min 0 W/m 18,5 C 26,1 C 0,0 km/h (0 Bft)
10.08.2020 21:50 26,1 C 63 % 1013,4 hPa 0,0 l/m 0,4 km/h (0 Bft) N-NW 340 0 min 0 W/m 18,5 C 26,1 C 3,2 km/h (1 Bft)
10.08.2020 21:45 26,2 C 62 % 1013,3 hPa 0,0 l/m 0,0 km/h (0 Bft) N-NW 340 0 min 0 W/m 18,3 C 26,2 C 0,0 km/h (0 Bft)
10.08.2020 21:40 26,3 C 62 % 1013,3 hPa 0,0 l/m 0,0 km/h (0 Bft) N-NW 340 0 min 0 W/m 18,4 C 26,3 C 0,0 km/h (0 Bft)
10.08.2020 21:35 26,3 C 62 % 1013,2 hPa 0,0 l/m 0,0 km/h (0 Bft) N-NW 340 0 min 0 W/m 18,4 C 26,3 C 0,0 km/h (0 Bft)
10.08.2020 21:30 26,5 C 62 % 1013,2 hPa 0,0 l/m 0,0 km/h (0 Bft) N-NW 340 0 min 0 W/m 18,6 C 26,5 C 0,0 km/h (0 Bft)
10.08.2020 21:25 26,7 C 61 % 1013,0 hPa 0,0 l/m 0,0 km/h (0 Bft) N-NW 340 0 min 0 W/m 18,5 C 26,7 C 0,0 km/h (0 Bft)
10.08.2020 21:20 26,9 C 61 % 1013,0 hPa 0,0 l/m 0,0 km/h (0 Bft) N-NW 340 0 min 0 W/m 18,7 C 26,9 C 0,0 km/h (0 Bft)
10.08.2020 21:15 27,1 C 60 % 1012,9 hPa 0,0 l/m 0,0 km/h (0 Bft) N-NW 340 0 min 0 W/m 18,6 C 27,1 C 0,0 km/h (0 Bft)
10.08.2020 21:10 27,3 C 59 % 1012,8 hPa 0,0 l/m 0,0 km/h (0 Bft) N-NW 340 0 min 0 W/m 18,6 C 27,3 C 0,0 km/h (0 Bft)
10.08.2020 21:05 27,6 C 59 % 1012,7 hPa 0,0 l/m 0,0 km/h (0 Bft) N-NW 340 0 min 0 W/m 18,8 C 27,6 C 0,0 km/h (0 Bft)
10.08.2020 21:00 27,8 C 58 % 1012,8 hPa 0,0 l/m 0,0 km/h (0 Bft) N-NW 340 0 min 0 W/m 18,8 C 27,8 C 0,0 km/h (0 Bft)
10.08.2020 20:55 27,9 C 57 % 1012,7 hPa 0,0 l/m 0,0 km/h (0 Bft) N-NW 340 0 min 0 W/m 18,6 C 27,9 C 0,0 km/h (0 Bft)
10.08.2020 20:50 28,2 C 57 % 1012,7 hPa 0,0 l/m 0,0 km/h (0 Bft) N-NW 340 0 min 5 W/m 18,9 C 28,2 C 1,6 km/h (1 Bft)
10.08.2020 20:45 28,3 C 56 % 1012,7 hPa 0,0 l/m 0,2 km/h (0 Bft) N-NW 340 0 min 7 W/m 18,7 C 28,3 C 3,2 km/h (1 Bft)
10.08.2020 20:40 28,6 C 56 % 1012,6 hPa 0,0 l/m 0,0 km/h (0 Bft) N-NW 340 0 min 11 W/m 18,9 C 28,6 C 0,0 km/h (0 Bft)
10.08.2020 20:35 28,8 C 55 % 1012,7 hPa 0,0 l/m 0,2 km/h (0 Bft) N-NW 340 0 min 12 W/m 18,8 C 28,8 C 4,8 km/h (1 Bft)
10.08.2020 20:30 29,0 C 54 % 1012,7 hPa 0,0 l/m 0,0 km/h (0 Bft) N-NW 340 0 min 16 W/m 18,7 C 29,0 C 1,6 km/h (1 Bft)
10.08.2020 20:25 29,2 C 54 % 1012,7 hPa 0,0 l/m 0,1 km/h (0 Bft) N-NW 340 0 min 19 W/m 18,9 C 29,2 C 3,2 km/h (1 Bft)
10.08.2020 20:20 29,4 C 54 % 1012,6 hPa 0,0 l/m 0,5 km/h (0 Bft) N-NW 341 0 min 25 W/m 19,1 C 29,4 C 6,4 km/h (2 Bft)
10.08.2020 20:15 29,6 C 53 % 1012,6 hPa 0,0 l/m 0,0 km/h (0 Bft) N-NW 341 0 min 30 W/m 19,0 C 29,6 C 0,0 km/h (0 Bft)
10.08.2020 20:10 29,7 C 53 % 1012,6 hPa 0,0 l/m 0,4 km/h (0 Bft) N-NW 341 0 min 37 W/m 19,1 C 29,7 C 4,8 km/h (1 Bft)
10.08.2020 20:05 29,8 C 52 % 1012,5 hPa 0,0 l/m 0,1 km/h (0 Bft) N-NW 341 0 min 40 W/m 18,9 C 29,8 C 3,2 km/h (1 Bft)
10.08.2020 20:00 29,9 C 52 % 1012,4 hPa 0,0 l/m 0,0 km/h (0 Bft) N-NW 341 0 min 46 W/m 19,0 C 29,9 C 0,0 km/h (0 Bft)
10.08.2020 19:55 29,9 C 52 % 1012,4 hPa 0,0 l/m 0,0 km/h (0 Bft) N-NW 341 0 min 51 W/m 19,0 C 29,9 C 0,0 km/h (0 Bft)
10.08.2020 19:50 30,1 C 52 % 1012,4 hPa 0,0 l/m 0,0 km/h (0 Bft) N-NW 341 0 min 56 W/m 19,1 C 30,1 C 0,0 km/h (0 Bft)
10.08.2020 19:45 30,1 C 52 % 1012,4 hPa 0,0 l/m 0,0 km/h (0 Bft) N-NW 341 0 min 62 W/m 19,1 C 30,1 C 1,6 km/h (1 Bft)
10.08.2020 19:40 30,2 C 52 % 1012,3 hPa 0,0 l/m 0,0 km/h (0 Bft) N-NW 342 0 min 70 W/m 19,2 C 30,2 C 1,6 km/h (1 Bft)
10.08.2020 19:35 30,2 C 52 % 1012,2 hPa 0,0 l/m 0,0 km/h (0 Bft) N-NW 342 0 min 81 W/m 19,2 C 30,2 C 0,0 km/h (0 Bft)
10.08.2020 19:30 30,3 C 53 % 1012,1 hPa 0,0 l/m 1,0 km/h (0 Bft) N-NW 341 0 min 93 W/m 19,6 C 30,3 C 6,4 km/h (2 Bft)
10.08.2020 19:25 30,3 C 53 % 1012,0 hPa 0,0 l/m 0,8 km/h (0 Bft) N-NW 343 0 min 109 W/m 19,6 C 30,3 C 8,0 km/h (2 Bft)
10.08.2020 19:20 30,4 C 52 % 1012,0 hPa 0,0 l/m 1,5 km/h (1 Bft) N-NW 331 0 min 120 W/m 19,4 C 30,4 C 11,3 km/h (2 Bft)
10.08.2020 19:15 30,5 C 52 % 1012,0 hPa 0,0 l/m 3,3 km/h (1 Bft) N-NW 327 0 min 120 W/m 19,5 C 30,5 C 12,9 km/h (3 Bft)
10.08.2020 19:10 30,6 C 52 % 1012,0 hPa 0,0 l/m 2,1 km/h (1 Bft) NW 323 0 min 107 W/m 19,6 C 30,6 C 8,0 km/h (2 Bft)
10.08.2020 19:05 30,6 C 51 % 1012,0 hPa 0,0 l/m 2,2 km/h (1 Bft) NW 325 0 min 135 W/m 19,3 C 30,6 C 8,0 km/h (2 Bft)
10.08.2020 19:00 30,7 C 51 % 1012,1 hPa 0,0 l/m 1,9 km/h (1 Bft) N-NW 329 0 min 116 W/m 19,4 C 30,7 C 12,9 km/h (3 Bft)
10.08.2020 18:55 30,7 C 51 % 1012,0 hPa 0,0 l/m 3,1 km/h (1 Bft) N-NW 336 0 min 123 W/m 19,4 C 30,7 C 9,7 km/h (2 Bft)
10.08.2020 18:50 30,8 C 51 % 1012,0 hPa 0,0 l/m 4,2 km/h (1 Bft) NW 325 0 min 121 W/m 19,5 C 30,8 C 12,9 km/h (3 Bft)
10.08.2020 18:45 31,1 C 50 % 1012,0 hPa 0,0 l/m 3,1 km/h (1 Bft) NW 323 0 min 90 W/m 19,4 C 31,1 C 9,7 km/h (2 Bft)
10.08.2020 18:40 31,3 C 49 % 1011,9 hPa 0,0 l/m 3,9 km/h (1 Bft) N-NW 331 0 min 120 W/m 19,3 C 31,3 C 11,3 km/h (2 Bft)
10.08.2020 18:35 31,6 C 48 % 1011,9 hPa 0,0 l/m 3,4 km/h (1 Bft) NW 326 0 min 142 W/m 19,2 C 31,6 C 12,9 km/h (3 Bft)
10.08.2020 18:30 31,8 C 48 % 1011,9 hPa 0,0 l/m 3,0 km/h (1 Bft) N-NW 340 5 min 188 W/m 19,4 C 31,8 C 9,7 km/h (2 Bft)
10.08.2020 18:25 31,9 C 48 % 1012,0 hPa 0,0 l/m 1,5 km/h (1 Bft) N-NW 342 5 min 186 W/m 19,5 C 31,9 C 8,0 km/h (2 Bft)
10.08.2020 18:20 32,0 C 47 % 1012,0 hPa 0,0 l/m 3,3 km/h (1 Bft) NW 324 5 min 218 W/m 19,2 C 32,0 C 12,9 km/h (3 Bft)
10.08.2020 18:15 32,1 C 45 % 1012,0 hPa 0,0 l/m 3,5 km/h (1 Bft) N-NW 334 5 min 248 W/m 18,6 C 32,1 C 12,9 km/h (3 Bft)
10.08.2020 18:10 32,3 C 43 % 1011,9 hPa 0,0 l/m 2,9 km/h (1 Bft) N-NW 337 5 min 243 W/m 18,1 C 32,3 C 12,9 km/h (3 Bft)
10.08.2020 18:05 32,3 C 40 % 1012,0 hPa 0,0 l/m 1,8 km/h (1 Bft) N-NW 329 5 min 295 W/m 16,9 C 32,3 C 8,0 km/h (2 Bft)
10.08.2020 18:00 32,2 C 41 % 1012,0 hPa 0,0 l/m 2,1 km/h (1 Bft) N-NW 339 5 min 308 W/m 17,2 C 32,2 C 8,0 km/h (2 Bft)
10.08.2020 17:55 32,2 C 41 % 1012,1 hPa 0,0 l/m 2,6 km/h (1 Bft) N-NW 336 5 min 315 W/m 17,2 C 32,2 C 12,9 km/h (3 Bft)
10.08.2020 17:50 32,0 C 39 % 1012,2 hPa 0,0 l/m 1,3 km/h (1 Bft) N-NW 330 5 min 339 W/m 16,3 C 32,0 C 8,0 km/h (2 Bft)
10.08.2020 17:45 31,9 C 40 % 1012,2 hPa 0,0 l/m 4,5 km/h (1 Bft) NW 319 5 min 353 W/m 16,6 C 31,9 C 14,5 km/h (3 Bft)
10.08.2020 17:40 31,8 C 41 % 1012,2 hPa 0,0 l/m 3,9 km/h (1 Bft) NW 309 5 min 350 W/m 16,9 C 31,8 C 14,5 km/h (3 Bft)
10.08.2020 17:35 32,0 C 41 % 1012,3 hPa 0,0 l/m 5,0 km/h (1 Bft) NW 314 5 min 359 W/m 17,1 C 32,0 C 14,5 km/h (3 Bft)
10.08.2020 17:30 31,9 C 43 % 1012,3 hPa 0,0 l/m 3,7 km/h (1 Bft) NW 325 5 min 376 W/m 17,7 C 31,9 C 12,9 km/h (3 Bft)
10.08.2020 17:25 31,8 C 44 % 1012,3 hPa 0,0 l/m 1,3 km/h (1 Bft) NW 325 5 min 366 W/m 18,0 C 31,8 C 8,0 km/h (2 Bft)
10.08.2020 17:20 31,6 C 44 % 1012,4 hPa 0,0 l/m 3,0 km/h (1 Bft) NW 310 5 min 406 W/m 17,8 C 31,6 C 14,5 km/h (3 Bft)
10.08.2020 17:15 31,3 C 45 % 1012,5 hPa 0,0 l/m 4,0 km/h (1 Bft) N-NW 328 5 min 490 W/m 17,9 C 31,3 C 12,9 km/h (3 Bft)
10.08.2020 17:10 30,9 C 46 % 1012,5 hPa 0,0 l/m 4,6 km/h (1 Bft) NW 321 5 min 466 W/m 17,9 C 30,9 C 12,9 km/h (3 Bft)
10.08.2020 17:05 30,6 C 48 % 1012,6 hPa 0,0 l/m 3,5 km/h (1 Bft) N-NW 330 5 min 510 W/m 18,3 C 30,6 C 9,7 km/h (2 Bft)
10.08.2020 17:00 30,4 C 49 % 1012,6 hPa 0,0 l/m 3,2 km/h (1 Bft) NW 311 5 min 239 W/m 18,5 C 30,4 C 9,7 km/h (2 Bft)
10.08.2020 16:55 30,3 C 50 % 1012,6 hPa 0,0 l/m 1,6 km/h (1 Bft) NW 315 5 min 199 W/m 18,7 C 30,3 C 8,0 km/h (2 Bft)
10.08.2020 16:50 30,2 C 51 % 1012,7 hPa 0,0 l/m 2,9 km/h (1 Bft) NW 315 5 min 181 W/m 18,9 C 30,2 C 8,0 km/h (2 Bft)
10.08.2020 16:45 30,1 C 52 % 1012,7 hPa 0,0 l/m 2,2 km/h (1 Bft) NW 321 5 min 178 W/m 19,1 C 30,1 C 12,9 km/h (3 Bft)
10.08.2020 16:40 30,1 C 54 % 1012,7 hPa 0,0 l/m 2,3 km/h (1 Bft) NW 319 5 min 183 W/m 19,7 C 30,1 C 12,9 km/h (3 Bft)
10.08.2020 16:35 29,9 C 54 % 1012,7 hPa 0,0 l/m 1,6 km/h (1 Bft) NW 326 5 min 236 W/m 19,6 C 29,9 C 9,7 km/h (2 Bft)
10.08.2020 16:30 29,8 C 55 % 1012,8 hPa 0,0 l/m 2,8 km/h (1 Bft) NW 315 5 min 285 W/m 19,8 C 29,8 C 8,0 km/h (2 Bft)
10.08.2020 16:25 29,7 C 56 % 1012,8 hPa 0,0 l/m 3,8 km/h (1 Bft) NW 321 5 min 283 W/m 20,0 C 29,7 C 9,7 km/h (2 Bft)
10.08.2020 16:20 29,5 C 57 % 1012,9 hPa 0,0 l/m 2,1 km/h (1 Bft) N-NW 344 5 min 272 W/m 20,1 C 29,5 C 8,0 km/h (2 Bft)
10.08.2020 16:15 29,3 C 58 % 1012,9 hPa 0,0 l/m 1,6 km/h (1 Bft) N-NW 327 5 min 265 W/m 20,2 C 29,3 C 12,9 km/h (3 Bft)
10.08.2020 16:10 29,2 C 58 % 1012,9 hPa 0,0 l/m 4,2 km/h (1 Bft) NW 314 5 min 265 W/m 20,1 C 29,2 C 8,0 km/h (2 Bft)
10.08.2020 16:05 29,0 C 58 % 1012,9 hPa 0,0 l/m 3,4 km/h (1 Bft) NW 317 5 min 265 W/m 19,9 C 29,0 C 11,3 km/h (2 Bft)
10.08.2020 16:00 28,9 C 58 % 1013,0 hPa 0,0 l/m 5,4 km/h (2 Bft) NW 317 5 min 262 W/m 19,8 C 28,9 C 12,9 km/h (3 Bft)
_ Min-Zeit 06:45 15:05 18:10 - 19:35 - - - - 06:30 06:45 19:35
Minimum _ 17,3 C 34 % 1011,9 hPa - 0,0 km/h (0 Bft) - - - - 15,4 C 17,3 C 0,0 km/h (0 Bft)
_ Max-Zeit 14:50 07:10 10:10 16:00 13:35 - - 16:00 13:10 16:15 14:50 13:35
Maximum _ 34,8 C 91 % 1015,5 hPa 0,0 l/m 11,3 km/h
O-SO (2 Bft)
- - 5 min 737 W/m 20,2 C 34,8 C 20,9 km/h
O (4 Bft)
Durchschnitt _ 26,1 C 63 % 1014,0 hPa #0,0 l/m 1,5 km/h (1 Bft) NW - #7:20 h 441 W/m 17,8 C 26,1 C 5,3 km/h (1 Bft)